RH
33 22 16 13 10 8 7 6 5 5 4 3 2 2 3 4 4 10 33 40 45 53 58 53 44 43 30
17 12 10 8 7 6 6 5 4 3 3 4 5 6 10 28 36 39 50 62 60 59 52 49 54 53 48
11 8 7 6 6 5 4 3 3 5 6 7 12 40 40 41 40 46 61 65 62 63 61 57 60 65 64
8 7 7 5 4 3 4 5 9 18 32 44 44 46 52 49 51 57 65 67 63 57 55 55 46 21 22
7 7 5 3 4 10 14 26 57 54 42 72 51 57 60 59 56 59 66 65 64 61 44 28 24 23 22
7 5 3 6 19 28 40 40 42 66 51 75 53 70 61 62 59 61 70 67 64 58 33 24 29 27 30
4 4 13 38 33 32 32 28 27 26 23 38 52 55 50 46 44 48 64 72 69 47 29 36 40 46 46
6 24 37 27 22 23 25 26 31 30 27 22 27 25 22 19 21 28 44 72 69 40 32 40 45 55 62
35 27 22 29 28 25 23 23 24 26 25 19 22 20 20 22 16 16 27 60 71 38 43 45 50 58 61
20 27 27 25 26 28 28 27 24 23 27 17 19 19 23 26 21 14 25 54 72 42 45 56 64 67 64
17 20 26 33 34 37 38 37 40 41 42 28 27 22 19 26 35 22 18 47 71 46 49 62 81 81 70
24 31 39 45 46 48 53 62 68 57 58 52 40 35 32 28 26 46 34 61 68 47 68 84 100 91 91
40 47 50 50 50 54 63 70 84 71 61 60 49 39 31 22 28 57 80 95 57 62 80 94 96 92 99
47 50 57 69 75 74 77 72 65 81 96 59 50 40 36 36 42 88 100 89 78 82 95 100 100 94 86
51 58 69 82 100 97 94 89 79 63 70 61 54 41 41 61 93 98 79 64 64 81 82 84 100 84 75
59 68 84 97 95 92 86 84 72 65 49 42 46 41 50 84 58 75 64 74 84 74 58 63 75 58 52
64 80 96 100 91 74 87 88 81 54 39 42 34 50 100 100 48 60 94 93 91 90 80 80 87 63 72
Wind_Speed
71 73 75 78 82 87 92 97 102 107 109 106 101 90 77 67 56 48 44 42 43 44 46 47 45 47 48
72 75 81 86 91 96 101 106 107 102 92 82 73 62 47 40 41 36 36 37 37 39 39 39 42 44 46
78 84 89 96 101 105 105 97 87 78 70 61 44 45 44 40 34 35 34 33 33 33 35 40 42 44 46
87 92 99 103 106 97 81 71 59 52 46 45 46 43 38 36 37 34 32 32 31 33 35 36 36 36 38
95 100 103 97 81 66 54 44 44 48 46 45 42 39 40 40 36 34 34 32 32 32 33 33 33 35 38
103 103 87 69 53 47 46 45 43 47 45 38 39 38 42 40 39 34 35 34 33 34 33 31 32 33 30
97 77 58 53 53 52 51 48 44 44 44 37 40 39 43 42 41 34 35 35 34 33 30 28 29 29 32
68 56 54 56 54 51 50 47 45 45 45 38 37 38 38 40 42 34 36 35 34 31 30 29 28 31 34
55 55 53 52 52 50 48 48 45 45 49 44 39 36 38 37 43 36 35 34 33 30 28 30 32 34 34
51 50 48 47 48 48 47 46 47 43 48 46 41 41 33 33 42 38 32 33 30 30 29 31 32 35 33
44 44 44 45 46 45 45 45 43 41 42 38 31 32 36 27 32 41 35 30 26 29 29 29 32 36 31
41 43 45 47 44 41 42 42 43 42 38 37 29 27 29 26 25 33 35 31 27 25 27 32 35 38 35
42 45 46 44 42 39 40 39 40 41 40 36 31 25 23 21 19 26 26 30 25 23 28 32 34 37 32
43 45 47 45 42 41 38 37 37 38 40 38 31 25 19 17 16 17 22 21 25 28 32 34 31 31 30
44 45 46 43 41 41 40 37 37 35 32 32 31 26 21 11 10 15 14 17 22 27 28 25 27 29 17
43 45 44 40 39 41 40 37 33 31 30 25 20 17 21 20 5 5 10 16 20 21 22 23 21 23 18
42 43 43 40 39 38 35 31 26 25 23 20 13 11 12 15 7 5 6 15 16 21 23 27 21 22 24
Wind_Direction
305 304 303 302 302 302 301 300 299 298 296 294 293 292 291 290 287 279 277 277 272 270 269 270 268 264 267
306 305 304 304 304 304 303 302 300 297 295 294 294 294 292 287 282 279 280 279 273 267 264 266 266 266 265
308 307 307 306 306 305 303 301 298 296 294 294 296 292 292 286 279 282 284 283 273 269 269 271 272 271 270
308 308 307 307 306 306 303 301 298 298 299 298 297 296 288 286 287 289 286 281 276 275 275 274 276 275 270
308 309 308 308 307 306 306 306 305 302 301 296 292 288 290 290 292 291 287 285 285 284 284 281 282 283 283
308 308 309 307 308 308 306 303 301 298 301 296 289 291 292 292 290 290 286 286 287 286 285 283 287 292 292
309 309 308 304 306 304 303 305 303 298 296 293 289 289 288 288 288 287 283 284 285 284 282 287 290 294 295
309 309 308 308 307 305 302 301 302 299 294 291 290 288 287 288 286 283 277 279 281 281 278 282 281 287 284
311 311 311 310 309 308 305 303 301 303 298 294 293 288 287 285 285 280 273 275 280 277 272 279 281 281 289
313 314 314 314 314 314 313 311 308 304 299 293 290 285 283 282 283 281 275 274 279 275 272 282 284 283 291
317 317 316 317 316 315 315 316 315 315 312 308 298 284 280 271 267 279 279 273 276 268 276 282 290 291 294
320 319 318 318 316 315 317 318 318 317 317 318 311 294 283 276 268 266 276 279 279 276 284 289 291 295 292
325 324 322 319 317 315 315 319 320 320 322 319 316 308 296 284 265 262 267 277 275 278 289 298 290 291 283
327 327 324 322 318 316 314 311 314 317 319 321 318 313 311 297 271 261 269 261 274 285 297 294 287 286 290
330 329 327 325 323 321 318 315 311 311 315 315 315 313 320 309 288 281 273 272 280 288 299 304 294 293 285
330 331 329 327 328 327 325 320 316 316 318 318 314 312 318 325 18 232 281 284 288 300 309 311 309 295 293
332 331 333 331 332 334 333 330 327 324 326 335 334 326 319 312 337 308 268 287 305 315 316 329 316 280 294